Погода в Антиполо

Филиппины     14°34′51″N   121°10′55″E
темп.,
°C
ветер,
м/с
пор.,
м/с
влажн.,
%
обл.,
%
осадки,
мм/ч
давл.,
гПа
погр.,
м
17 января, пн
пн1723:00+23в6106818 0.0 1016953
02:00+22всв5971100 0.0 1016731
05:00+21св487896 0.0 1015482
08:00+24всв6116883 0.0 10161040
11:00+27всв795488 0.0 10151571
14:00+28всв8854100 0.0 10131500
17:00+25всв6966100 0.0 10131048
20:00+23в5974100 0.0 1015614
18 января, вт
вт1823:00+22всв488063 0.0 1015453
02:00+22всв4781100 0.0 1014443
05:00+21всв338450 0.0 1014133
08:00+23св367483 0.0 1015375
11:00+27всв796049 0.0 10151504
14:00+27всв795818 0.1 10121573
17:00+25всв69605 0.0 10121171
20:00+22всв487249 0.0 1014560
19 января, ср
ср1923:00+21св377953 0.0 1014464
02:00+21св258133 0.0 1012287
05:00+21св2384100 0.0 1012138
08:00+24св267687 0.0 1013590
11:00+27всв696357 0.0 10121314
14:00+27св586645 0.1 10101239
17:00+26всв47726 0.1 1010966
20:00+24в488214 0.1 1012603
20 января, чт
чт2023:00+24в498092 0.0 1012786
02:00+24всв497962 0.1 1011768
05:00+23всв48795 0.1 1011685
08:00+24всв487167 0.1 1012794
11:00+28всв795512 0.0 10121473
14:00+28всв895810 0.0 10101178
17:00+26всв61064100 0.0 10101092
20:00+24всв4974100 0.0 1012724
21 января, пт
пт2123:00+25всв5107599 0.0 1012805
02:00+24всв4978100 0.0 1011758
05:00+24всв4108097 0.1 1011840
08:00+25всв5108194 0.3 1013795
11:00+26всв81376100 1.1 10131013
14:00+25всв8137788 1.9 10111022
17:00+24в61280100 0.4 1012824
20:00+24всв6127990 0.4 1014810